Time,TemperatureF,DewpointF,PressureIn,WindDirection,WindDirectionDegrees,WindSpeedMPH,WindSpeedGustMPH,Humidity,HourlyPrecipIn,Conditions,Clouds,dailyrainin,SoftwareType,DateUTC
2013-02-14 00:07:00,34.8,31.0,29.93,West,270,3.0,5.0,87,0.00,,,0.07,weatherlink.com 1.10,2013-02-14 05:07:00,
2013-02-14 00:22:00,34.9,31.0,29.94,South,181,1.0,5.0,87,0.00,,,0.07,weatherlink.com 1.10,2013-02-14 05:22:00,
2013-02-14 00:37:00,35.0,32.0,29.93,SSW,201,2.0,6.0,87,0.00,,,0.07,weatherlink.com 1.10,2013-02-14 05:37:00,
2013-02-14 00:52:00,35.2,32.0,29.93,SW,217,0.0,8.0,87,0.00,,,0.07,weatherlink.com 1.10,2013-02-14 05:52:00,
2013-02-14 01:07:00,35.1,32.0,29.93,SW,233,6.0,8.0,87,0.00,,,0.07,weatherlink.com 1.10,2013-02-14 06:07:00,
2013-02-14 01:22:00,35.1,32.0,29.93,SW,221,1.0,13.0,87,0.00,,,0.07,weatherlink.com 1.10,2013-02-14 06:22:00,
2013-02-14 01:37:00,35.1,32.0,29.93,WSW,253,4.0,9.0,87,0.00,,,0.07,weatherlink.com 1.10,2013-02-14 06:37:00,
2013-02-14 01:52:00,35.1,32.0,29.93,WNW,293,5.0,7.0,88,0.00,,,0.07,weatherlink.com 1.10,2013-02-14 06:52:00,
2013-02-14 02:07:00,35.1,32.0,29.93,WSW,257,0.0,9.0,88,0.00,,,0.07,weatherlink.com 1.10,2013-02-14 07:07:00,
2013-02-14 02:22:00,34.9,32.0,29.92,West,274,2.0,5.0,89,0.00,,,0.07,weatherlink.com 1.10,2013-02-14 07:22:00,
2013-02-14 02:37:00,34.9,32.0,29.92,WSW,257,1.0,8.0,89,0.00,,,0.07,weatherlink.com 1.10,2013-02-14 07:37:00,
2013-02-14 02:53:00,34.9,32.0,29.92,SW,227,5.0,7.0,89,0.00,,,0.07,weatherlink.com 1.10,2013-02-14 07:53:00,
2013-02-14 03:07:00,34.9,32.0,29.92,West,264,0.0,6.0,89,0.00,,,0.07,weatherlink.com 1.10,2013-02-14 08:07:00,
2013-02-14 03:22:00,35.0,32.0,29.92,SW,222,1.0,8.0,90,0.00,,,0.07,weatherlink.com 1.10,2013-02-14 08:22:00,
2013-02-14 03:37:00,35.5,33.0,29.92,WSW,243,5.0,11.0,89,0.00,,,0.07,weatherlink.com 1.10,2013-02-14 08:37:00,
2013-02-14 03:52:00,35.9,33.0,29.92,WSW,249,3.0,10.0,89,0.00,,,0.07,weatherlink.com 1.10,2013-02-14 08:52:00,
2013-02-14 04:07:00,36.2,33.0,29.92,SSW,212,1.0,7.0,89,0.00,,,0.07,weatherlink.com 1.10,2013-02-14 09:07:00,
2013-02-14 04:22:00,36.4,34.0,29.91,SW,229,5.0,8.0,89,0.00,,,0.07,weatherlink.com 1.10,2013-02-14 09:22:00,
2013-02-14 04:38:00,36.5,34.0,29.92,West,269,4.0,10.0,89,0.00,,,0.07,weatherlink.com 1.10,2013-02-14 09:38:00,
2013-02-14 04:52:00,36.7,34.0,29.92,SW,235,2.0,9.0,89,0.00,,,0.07,weatherlink.com 1.10,2013-02-14 09:52:00,
2013-02-14 05:08:00,36.8,34.0,29.91,SW,229,4.0,9.0,89,0.00,,,0.07,weatherlink.com 1.10,2013-02-14 10:08:00,
2013-02-14 05:22:00,36.9,34.0,29.91,WSW,248,4.0,8.0,89,0.00,,,0.07,weatherlink.com 1.10,2013-02-14 10:22:00,
2013-02-14 05:37:00,37.1,34.0,29.91,SW,218,3.0,8.0,89,0.00,,,0.07,weatherlink.com 1.10,2013-02-14 10:37:00,
2013-02-14 05:52:00,37.1,34.0,29.91,SW,223,0.0,6.0,89,0.00,,,0.07,weatherlink.com 1.10,2013-02-14 10:52:00,
2013-02-14 06:08:00,37.2,34.0,29.91,NNW,328,1.0,10.0,88,0.00,,,0.07,weatherlink.com 1.10,2013-02-14 11:08:00,
2013-02-14 06:22:00,37.3,34.0,29.91,WNW,290,2.0,6.0,88,0.00,,,0.07,weatherlink.com 1.10,2013-02-14 11:22:00,
2013-02-14 06:37:00,37.3,34.0,29.91,WNW,284,3.0,6.0,88,0.00,,,0.07,weatherlink.com 1.10,2013-02-14 11:37:00,
2013-02-14 06:53:00,37.4,34.0,29.91,South,187,5.0,9.0,88,0.00,,,0.07,weatherlink.com 1.10,2013-02-14 11:53:00,
2013-02-14 07:08:00,37.4,34.0,29.92,SSW,208,1.0,6.0,88,0.00,,,0.07,weatherlink.com 1.10,2013-02-14 12:08:00,
2013-02-14 07:23:00,37.5,34.0,29.92,WNW,283,1.0,6.0,88,0.00,,,0.07,weatherlink.com 1.10,2013-02-14 12:23:00,
2013-02-14 07:38:00,37.5,34.0,29.92,South,180,2.0,5.0,88,0.00,,,0.07,weatherlink.com 1.10,2013-02-14 12:38:00,
2013-02-14 07:53:00,37.5,34.0,29.91,South,181,0.0,5.0,88,0.00,,,0.07,weatherlink.com 1.10,2013-02-14 12:53:00,
2013-02-14 08:08:00,37.5,34.0,29.92,WSW,253,2.0,4.0,88,0.00,,,0.07,weatherlink.com 1.10,2013-02-14 13:08:00,
2013-02-14 08:23:00,37.6,34.0,29.93,WSW,249,6.0,8.0,88,0.00,,,0.07,weatherlink.com 1.10,2013-02-14 13:23:00,
2013-02-14 08:38:00,37.7,35.0,29.93,SSW,200,2.0,10.0,88,0.00,,,0.07,weatherlink.com 1.10,2013-02-14 13:38:00,
2013-02-14 08:53:00,37.8,34.0,29.93,SW,217,4.0,10.0,87,0.00,,,0.07,weatherlink.com 1.10,2013-02-14 13:53:00,
2013-02-14 09:08:00,38.1,35.0,29.93,SW,214,1.0,8.0,87,0.00,,,0.07,weatherlink.com 1.10,2013-02-14 14:08:00,
2013-02-14 09:23:00,38.1,35.0,29.93,SSE,163,5.0,11.0,87,0.00,,,0.07,weatherlink.com 1.10,2013-02-14 14:23:00,
2013-02-14 09:38:00,38.4,35.0,29.93,SW,232,5.0,8.0,87,0.00,,,0.07,weatherlink.com 1.10,2013-02-14 14:38:00,
2013-02-14 09:53:00,38.7,35.0,29.93,SSW,204,0.0,7.0,86,0.00,,,0.07,weatherlink.com 1.10,2013-02-14 14:53:00,
2013-02-14 10:08:00,39.5,35.0,29.93,SSW,209,4.0,11.0,85,0.00,,,0.07,weatherlink.com 1.10,2013-02-14 15:08:00,
2013-02-14 10:23:00,40.2,35.0,29.93,SW,227,1.0,12.0,83,0.00,,,0.07,weatherlink.com 1.10,2013-02-14 15:23:00,
2013-02-14 10:38:00,41.2,36.0,29.93,WSW,250,1.0,12.0,81,0.00,,,0.07,weatherlink.com 1.10,2013-02-14 15:38:00,
2013-02-14 10:53:00,41.7,36.0,29.92,South,184,3.0,11.0,80,0.00,,,0.07,weatherlink.com 1.10,2013-02-14 15:53:00,
2013-02-14 11:08:00,42.3,36.0,29.92,WSW,239,12.0,14.0,79,0.00,,,0.07,weatherlink.com 1.10,2013-02-14 16:08:00,
2013-02-14 11:23:00,43.9,37.0,29.92,WNW,295,6.0,10.0,77,0.00,,,0.07,weatherlink.com 1.10,2013-02-14 16:23:00,
2013-02-14 11:38:00,45.2,37.0,29.91,WNW,289,6.0,13.0,74,0.00,,,0.07,weatherlink.com 1.10,2013-02-14 16:38:00,
2013-02-14 11:53:00,46.1,38.0,29.91,WSW,242,1.0,15.0,72,0.00,,,0.07,weatherlink.com 1.10,2013-02-14 16:53:00,
2013-02-14 12:08:00,47.3,38.0,29.91,SW,226,8.0,14.0,70,0.00,,,0.00,weatherlink.com 1.10,2013-02-14 17:08:00,
2013-02-14 12:23:00,47.9,38.0,29.90,ESE,122,6.0,13.0,68,0.00,,,0.00,weatherlink.com 1.10,2013-02-14 17:23:00,
2013-02-14 12:38:00,48.9,38.0,29.89,SE,139,2.0,12.0,66,0.00,,,0.00,weatherlink.com 1.10,2013-02-14 17:38:00,
2013-02-14 12:53:00,50.5,38.0,29.89,South,183,4.0,11.0,63,0.00,,,0.00,weatherlink.com 1.10,2013-02-14 17:53:00,
2013-02-14 13:08:00,51.0,38.0,29.88,West,262,3.0,16.0,61,0.00,,,0.00,weatherlink.com 1.10,2013-02-14 18:08:00,
2013-02-14 13:24:00,51.7,38.0,29.87,NW,312,1.0,14.0,61,0.00,,,0.00,weatherlink.com 1.10,2013-02-14 18:24:00,
2013-02-14 13:39:00,52.5,38.0,29.87,SW,232,4.0,11.0,58,0.00,,,0.00,weatherlink.com 1.10,2013-02-14 18:39:00,
2013-02-14 13:53:00,54.1,39.0,29.87,WNW,298,4.0,10.0,56,0.00,,,0.00,weatherlink.com 1.10,2013-02-14 18:53:00,
2013-02-14 14:08:00,54.3,37.0,29.86,SSW,192,3.0,14.0,53,0.00,,,0.00,weatherlink.com 1.10,2013-02-14 19:08:00,
2013-02-14 14:24:00,54.8,37.0,29.86,NNE,18,7.0,11.0,52,0.00,,,0.00,weatherlink.com 1.10,2013-02-14 19:24:00,
2013-02-14 14:38:00,55.4,36.0,29.86,North,356,3.0,10.0,49,0.00,,,0.00,weatherlink.com 1.10,2013-02-14 19:38:00,
2013-02-14 14:54:00,56.2,37.0,29.86,West,260,2.0,13.0,49,0.00,,,0.00,weatherlink.com 1.10,2013-02-14 19:54:00,
2013-02-14 15:09:00,56.3,37.0,29.86,WSW,253,6.0,14.0,49,0.00,,,0.00,weatherlink.com 1.10,2013-02-14 20:09:00,
2013-02-14 15:24:00,56.8,37.0,29.86,ENE,69,1.0,14.0,47,0.00,,,0.00,weatherlink.com 1.10,2013-02-14 20:24:00,
2013-02-14 15:39:00,57.0,37.0,29.86,WNW,283,2.0,14.0,48,0.00,,,0.00,weatherlink.com 1.10,2013-02-14 20:39:00,
2013-02-14 15:54:00,57.4,36.0,29.86,West,278,5.0,11.0,45,0.00,,,0.00,weatherlink.com 1.10,2013-02-14 20:54:00,
2013-02-14 16:09:00,57.3,35.0,29.87,West,267,9.0,13.0,44,0.00,,,0.00,weatherlink.com 1.10,2013-02-14 21:09:00,
2013-02-14 16:24:00,57.5,36.0,29.87,West,268,5.0,19.0,44,0.00,,,0.00,weatherlink.com 1.10,2013-02-14 21:24:00,
2013-02-14 16:39:00,57.1,36.0,29.88,SW,225,3.0,19.0,46,0.00,,,0.00,weatherlink.com 1.10,2013-02-14 21:39:00,
2013-02-14 16:54:00,57.1,37.0,29.88,SW,231,8.0,13.0,47,0.00,,,0.00,weatherlink.com 1.10,2013-02-14 21:54:00,
2013-02-14 17:09:00,56.2,37.0,29.88,WSW,245,5.0,10.0,48,0.00,,,0.00,weatherlink.com 1.10,2013-02-14 22:09:00,
2013-02-14 17:24:00,55.9,35.0,29.89,West,273,9.0,12.0,46,0.00,,,0.00,weatherlink.com 1.10,2013-02-14 22:24:00,
2013-02-14 17:39:00,55.0,35.0,29.90,WNW,290,4.0,12.0,47,0.00,,,0.00,weatherlink.com 1.10,2013-02-14 22:39:00,
2013-02-14 17:54:00,54.3,34.0,29.91,NW,321,4.0,12.0,47,0.00,,,0.00,weatherlink.com 1.10,2013-02-14 22:54:00,
2013-02-14 18:09:00,53.5,35.0,29.91,WSW,247,1.0,7.0,49,0.00,,,0.00,weatherlink.com 1.10,2013-02-14 23:09:00,
2013-02-14 18:24:00,52.8,34.0,29.91,North,360,1.0,8.0,50,0.00,,,0.00,weatherlink.com 1.10,2013-02-14 23:24:00,
2013-02-14 18:39:00,52.0,34.0,29.92,WNW,284,0.0,3.0,51,0.00,,,0.00,weatherlink.com 1.10,2013-02-14 23:39:00,
2013-02-14 18:54:00,51.0,35.0,29.93,WNW,298,3.0,3.0,54,0.00,,,0.00,weatherlink.com 1.10,2013-02-14 23:54:00,
2013-02-14 19:09:00,49.2,34.0,29.93,South,180,0.0,0.0,57,0.00,,,0.00,weatherlink.com 1.10,2013-02-15 00:09:00,
2013-02-14 19:24:00,47.8,35.0,29.94,SW,232,1.0,2.0,61,0.00,,,0.00,weatherlink.com 1.10,2013-02-15 00:24:00,
2013-02-14 19:39:00,46.9,35.0,29.94,SW,229,0.0,1.0,63,0.00,,,0.00,weatherlink.com 1.10,2013-02-15 00:39:00,
2013-02-14 19:54:00,47.2,35.0,29.95,West,259,0.0,2.0,63,0.00,,,0.00,weatherlink.com 1.10,2013-02-15 00:54:00,
2013-02-14 20:09:00,45.5,35.0,29.95,West,259,0.0,0.0,66,0.00,,,0.00,weatherlink.com 1.10,2013-02-15 01:09:00,
2013-02-14 20:24:00,44.4,34.0,29.95,West,259,0.0,1.0,68,0.00,,,0.00,weatherlink.com 1.10,2013-02-15 01:24:00,
2013-02-14 20:39:00,43.8,35.0,29.95,SSW,207,0.0,1.0,70,0.00,,,0.00,weatherlink.com 1.10,2013-02-15 01:39:00,
2013-02-14 20:55:00,44.4,35.0,29.95,WSW,238,0.0,1.0,69,0.00,,,0.00,weatherlink.com 1.10,2013-02-15 01:55:00,
2013-02-14 21:09:00,43.4,35.0,29.96,WSW,240,0.0,1.0,71,0.00,,,0.00,weatherlink.com 1.10,2013-02-15 02:09:00,
2013-02-14 21:24:00,42.8,34.0,29.96,WSW,239,0.0,1.0,72,0.00,,,0.00,weatherlink.com 1.10,2013-02-15 02:24:00,
2013-02-14 21:39:00,42.6,35.0,29.97,SW,228,1.0,1.0,73,0.00,,,0.00,weatherlink.com 1.10,2013-02-15 02:39:00,
2013-02-14 21:54:00,42.5,34.0,29.96,SW,229,0.0,1.0,73,0.00,,,0.00,weatherlink.com 1.10,2013-02-15 02:54:00,
2013-02-14 22:10:00,41.5,34.0,29.97,SW,229,0.0,0.0,75,0.00,,,0.00,weatherlink.com 1.10,2013-02-15 03:10:00,
2013-02-14 22:24:00,41.5,34.0,29.97,WSW,240,0.0,1.0,76,0.00,,,0.00,weatherlink.com 1.10,2013-02-15 03:24:00,
2013-02-14 22:40:00,42.8,35.0,29.98,West,269,0.0,1.0,73,0.00,,,0.00,weatherlink.com 1.10,2013-02-15 03:40:00,
2013-02-14 22:55:00,42.9,34.0,29.98,WNW,285,0.0,2.0,72,0.00,,,0.00,weatherlink.com 1.10,2013-02-15 03:55:00,
2013-02-14 23:10:00,42.5,34.0,29.99,West,281,1.0,1.0,73,0.00,,,0.00,weatherlink.com 1.10,2013-02-15 04:10:00,
2013-02-14 23:25:00,42.6,35.0,29.99,WNW,290,1.0,1.0,73,0.00,,,0.00,weatherlink.com 1.10,2013-02-15 04:25:00,
2013-02-14 23:40:00,43.6,34.0,29.99,North,5,2.0,4.0,70,0.00,,,0.00,weatherlink.com 1.10,2013-02-15 04:40:00,
2013-02-14 23:55:00,44.5,34.0,30.00,NNE,27,3.0,9.0,68,0.00,,,0.00,weatherlink.com 1.10,2013-02-15 04:55:00,